| time (UTC) | temp F | wind direction | speed MPH | gust MPH | rain 1hr in | rain 24hr in | rain mn in | humidity % | barometer mb |
| 20260831083010 | 80 | 280 | 0.0 | 0.0 | 0.00 | 0.00 | 0.00 | 54 | 1004.4 |
| 20260831081506 | 80 | 280 | 0.0 | 0.0 | 0.00 | 0.00 | 0.00 | 58 | 1004.4 |
| 20260831080004 | 80 | 280 | 0.0 | 0.0 | 0.00 | 0.00 | 0.00 | 56 | 1004.5 |
| 20260831074601 | 82 | 280 | 0.0 | 0.0 | 0.00 | 0.00 | 0.00 | 53 | 1004.8 |
| 20260831073103 | 82 | 280 | 0.0 | 0.0 | 0.00 | 0.00 | 0.00 | 54 | 1004.5 |
| 20260831071611 | 84 | 280 | 0.0 | 0.0 | 0.00 | 0.00 | 0.00 | 47 | 1004.7 |
| 20260831070053 | 84 | 280 | 0.0 | 0.0 | 0.00 | 0.00 | 0.00 | 47 | 1004.8 |
| 20260831064553 | 85 | 280 | 0.0 | 1.0 | 0.00 | 0.00 | 0.00 | 47 | 1004.7 |
| 20260831063054 | 84 | 282 | 0.0 | 0.0 | 0.00 | 0.00 | 0.00 | 49 | 1004.8 |
| 20260831061552 | 84 | 282 | 0.0 | 0.0 | 0.00 | 0.00 | 0.00 | 48 | 1004.8 |
| 20260831054551 | 85 | 269 | 0.0 | 4.0 | 0.00 | 0.00 | 0.00 | 46 | 1004.6 |
| 20260831053053 | 86 | 319 | 2.0 | 6.0 | 0.00 | 0.00 | 0.00 | 45 | 1004.6 |
| 20260831051549 | 86 | 319 | 1.0 | 9.0 | 0.00 | 0.00 | 0.00 | 44 | 1004.2 |
| 20260831050049 | 87 | 330 | 6.0 | 14.0 | 0.00 | 0.00 | 0.00 | 44 | 1004.0 |
| 20260831044550 | 87 | 333 | 7.0 | 15.0 | 0.00 | 0.00 | 0.00 | 43 | 1004.1 |
| 20260831043048 | 87 | 297 | 4.0 | 12.0 | 0.00 | 0.00 | 0.00 | 42 | 1004.1 |
| 20260831041547 | 87 | 315 | 4.0 | 16.0 | 0.00 | 0.00 | 0.00 | 41 | 1004.0 |
| 20260831040047 | 88 | 280 | 6.0 | 13.0 | 0.00 | 0.00 | 0.00 | 41 | 1003.8 |
| 20260831034545 | 88 | 288 | 8.0 | 13.0 | 0.00 | 0.00 | 0.00 | 39 | 1003.7 |
| 20260831033051 | 89 | 318 | 9.0 | 15.0 | 0.00 | 0.00 | 0.00 | 38 | 1003.3 |
| 20260831031544 | 89 | 316 | 8.0 | 16.0 | 0.00 | 0.00 | 0.00 | 38 | 1002.9 |
| 20260831030043 | 92 | 321 | 7.0 | 11.0 | 0.00 | 0.00 | 0.00 | 36 | 1002.6 |
| 20260831024543 | 92 | 328 | 5.0 | 7.0 | 0.00 | 0.00 | 0.00 | 34 | 1002.3 |
| 20260831023043 | 92 | 319 | 4.0 | 8.0 | 0.00 | 0.00 | 0.00 | 33 | 1002.0 |
| 20260831021542 | 92 | 319 | 3.0 | 8.0 | 0.00 | 0.00 | 0.00 | 33 | 1001.6 |
| 20260831014539 | 93 | 316 | 3.0 | 5.0 | 0.00 | 0.00 | 0.00 | 33 | 1001.5 |
| 20260831013039 | 94 | 298 | 3.0 | 7.0 | 0.00 | 0.00 | 0.00 | 32 | 1001.4 |
| 20260831011539 | 94 | 319 | 2.0 | 6.0 | 0.00 | 0.00 | 0.00 | 31 | 1001.3 |
| 20260831010037 | 95 | 312 | 2.0 | 5.0 | 0.00 | 0.00 | 0.00 | 31 | 1001.2 |
| 20260831004545 | 97 | 300 | 2.0 | 7.0 | 0.00 | 0.00 | 0.00 | 29 | 1001.2 |
| 20260831003036 | 99 | 205 | 0.0 | 8.0 | 0.00 | 0.00 | 0.00 | 29 | 1001.3 |
| 20260831001535 | 99 | 265 | 2.0 | 8.0 | 0.00 | 0.00 | 0.00 | 28 | 1001.4 |
| 20260831000035 | 99 | 340 | 4.0 | 7.0 | 0.00 | 0.00 | 0.00 | 28 | 1001.4 |
| 20260830234542 | 99 | 304 | 1.0 | 6.0 | 0.00 | 0.00 | 0.00 | 29 | 1001.3 |
| 20260830233031 | 99 | 317 | 1.0 | 5.0 | 0.00 | 0.00 | 0.00 | 28 | 1001.4 |
| 20260830231529 | 99 | 133 | 1.0 | 6.0 | 0.00 | 0.00 | 0.00 | 28 | 1001.6 |
| 20260830230026 | 98 | 325 | 4.0 | 10.0 | 0.00 | 0.00 | 0.00 | 29 | 1002.0 |
| 20260830224524 | 99 | 330 | 4.0 | 7.0 | 0.00 | 0.00 | 0.00 | 29 | 1002.2 |
| 20260830223021 | 99 | 231 | 3.0 | 10.0 | 0.00 | 0.00 | 0.00 | 28 | 1002.5 |
| 20260830221519 | 100 | 217 | 3.0 | 8.0 | 0.00 | 0.00 | 0.00 | 28 | 1002.7 |
| 20260830220015 | 99 | 221 | 1.0 | 6.0 | 0.00 | 0.00 | 0.00 | 29 | 1002.9 |
| 20260830214512 | 99 | 245 | 3.0 | 9.0 | 0.00 | 0.00 | 0.00 | 28 | 1003.2 |
| 20260830213012 | 100 | 62 | 0.0 | 4.0 | 0.00 | 0.00 | 0.00 | 27 | 1003.3 |
| 20260830211503 | 98 | 218 | 2.0 | 9.0 | 0.00 | 0.00 | 0.00 | 29 | 1003.6 |
| 20260830210003 | 97 | 328 | 3.0 | 10.0 | 0.00 | 0.00 | 0.00 | 30 | 1003.9 |
| 20260830204610 | 99 | 308 | 3.0 | 6.0 | 0.00 | 0.00 | 0.00 | 30 | 1004.2 |
| 20260830203108 | 97 | 316 | 3.0 | 5.0 | 0.00 | 0.00 | 0.00 | 31 | 1004.6 |
| 20260830201602 | 98 | 118 | 4.0 | 7.0 | 0.00 | 0.00 | 0.00 | 30 | 1004.7 |
| 20260830200056 | 96 | 311 | 2.0 | 6.0 | 0.00 | 0.00 | 0.00 | 33 | 1005.0 |
| 20260830194554 | 97 | 156 | 2.0 | 8.0 | 0.00 | 0.00 | 0.00 | 31 | 1005.1 |
| 20260830193052 | 95 | 205 | 2.0 | 6.0 | 0.00 | 0.00 | 0.00 | 32 | 1005.4 |
| 20260830191554 | 96 | 4 | 2.0 | 6.0 | 0.00 | 0.00 | 0.00 | 33 | 1005.8 |
| 20260830190049 | 96 | 276 | 1.0 | 5.0 | 0.00 | 0.00 | 0.00 | 33 | 1006.0 |
| 20260830184550 | 94 | 294 | 2.0 | 6.0 | 0.00 | 0.00 | 0.00 | 35 | 1006.1 |
| 20260830183146 | 93 | 316 | 1.0 | 5.0 | 0.00 | 0.00 | 0.00 | 36 | 1006.3 |
| 20260830181544 | 94 | 338 | 0.0 | 5.0 | 0.00 | 0.00 | 0.00 | 36 | 1006.5 |
| 20260830180041 | 93 | 111 | 2.0 | 6.0 | 0.00 | 0.00 | 0.00 | 37 | 1006.7 |
| 20260830174541 | 90 | 233 | 2.0 | 5.0 | 0.00 | 0.00 | 0.00 | 40 | 1006.7 |
| 20260830173037 | 91 | 268 | 1.0 | 5.0 | 0.00 | 0.00 | 0.00 | 40 | 1006.8 |
| 20260830171535 | 90 | 136 | 1.0 | 4.0 | 0.00 | 0.00 | 0.00 | 41 | 1006.9 |
| 20260830170032 | 87 | 303 | 0.0 | 2.0 | 0.00 | 0.00 | 0.00 | 43 | 1006.9 |
| 20260830164538 | 88 | 300 | 0.0 | 3.0 | 0.00 | 0.00 | 0.00 | 43 | 1006.9 |
| 20260830163031 | 87 | 281 | 1.0 | 2.0 | 0.00 | 0.00 | 0.00 | 45 | 1007.0 |
| 20260830161536 | 86 | 303 | 0.0 | 1.0 | 0.00 | 0.00 | 0.00 | 45 | 1007.1 |
| 20260830160030 | 85 | 298 | 0.0 | 1.0 | 0.00 | 0.00 | 0.00 | 48 | 1007.2 |
| 20260830154536 | 85 | 302 | 0.0 | 1.0 | 0.00 | 0.00 | 0.00 | 48 | 1007.2 |
| 20260830153043 | 86 | 301 | 0.0 | 1.0 | 0.00 | 0.00 | 0.00 | 45 | 1007.1 |
| 20260830151525 | 84 | 301 | 0.0 | 0.0 | 0.00 | 0.00 | 0.00 | 49 | 1006.9 |
| 20260830150025 | 81 | 301 | 0.0 | 0.0 | 0.00 | 0.00 | 0.00 | 55 | 1007.0 |
| 20260830144524 | 80 | 301 | 0.0 | 0.0 | 0.00 | 0.00 | 0.00 | 64 | 1007.0 |
| 20260830143028 | 79 | 301 | 0.0 | 0.0 | 0.00 | 0.00 | 0.00 | 64 | 1007.0 |
| 20260830141523 | 78 | 301 | 0.0 | 0.0 | 0.00 | 0.00 | 0.00 | 60 | 1007.1 |
| 20260830140024 | 78 | 301 | 0.0 | 0.0 | 0.00 | 0.00 | 0.00 | 62 | 1007.3 |
| 20260830134530 | 79 | 301 | 0.0 | 0.0 | 0.00 | 0.00 | 0.00 | 60 | 1007.3 |
| 20260830133018 | 79 | 301 | 0.0 | 0.0 | 0.00 | 0.00 | 0.00 | 59 | 1007.3 |
| 20260830131515 | 79 | 301 | 0.0 | 1.0 | 0.00 | 0.00 | 0.00 | 55 | 1007.2 |
| 20260830130014 | 80 | 302 | 0.0 | 1.0 | 0.00 | 0.00 | 0.00 | 53 | 1007.1 |
| 20260830124512 | 81 | 300 | 1.0 | 2.0 | 0.00 | 0.00 | 0.00 | 51 | 1007.0 |
| 20260830123012 | 82 | 338 | 0.0 | 4.0 | 0.00 | 0.00 | 0.00 | 49 | 1006.7 |
| 20260830121514 | 82 | 326 | 3.0 | 7.0 | 0.00 | 0.00 | 0.00 | 48 | 1006.8 |
| 20260830120008 | 81 | 322 | 5.0 | 11.0 | 0.00 | 0.00 | 0.00 | 49 | 1006.5 |
| 20260830114518 | 81 | 116 | 2.0 | 6.0 | 0.00 | 0.00 | 0.00 | 48 | 1006.1 |
| 20260830113007 | 80 | 130 | 0.0 | 3.0 | 0.00 | 0.00 | 0.00 | 51 | 1006.1 |
| 20260830111510 | 81 | 82 | 0.0 | 0.0 | 0.00 | 0.00 | 0.00 | 49 | 1006.3 |
| 20260830110005 | 81 | 110 | 0.0 | 0.0 | 0.00 | 0.00 | 0.00 | 50 | 1006.3 |
| 20260830104503 | 81 | 110 | 0.0 | 1.0 | 0.00 | 0.00 | 0.00 | 49 | 1006.2 |
| 20260830103100 | 82 | 110 | 0.0 | 2.0 | 0.00 | 0.00 | 0.00 | 50 | 1005.9 |
| 20260830101606 | 82 | 93 | 0.0 | 2.0 | 0.00 | 0.00 | 0.00 | 47 | 1005.5 |
| 20260830100055 | 82 | 94 | 2.0 | 5.0 | 0.00 | 0.00 | 0.00 | 47 | 1005.4 |
| 20260830094559 | 83 | 124 | 0.0 | 6.0 | 0.00 | 0.00 | 0.00 | 47 | 1005.4 |
| 20260830093052 | 83 | 107 | 0.0 | 2.0 | 0.00 | 0.00 | 0.00 | 48 | 1005.1 |
| 20260830091551 | 83 | 316 | 0.0 | 0.0 | 0.00 | 0.00 | 0.00 | 47 | 1005.2 |
| 20260830090054 | 83 | 314 | 0.0 | 3.0 | 0.00 | 0.00 | 0.00 | 47 | 1005.0 |
| 20260830084547 | 83 | 305 | 3.0 | 8.0 | 0.00 | 0.00 | 0.00 | 47 | 1004.8 |